Overview Statistics Trail Chart Weather Telemetry Raw packets
 

This is the latest recevied weather packets stored in our database for station/object KD4EG. If no packets are shown the sender has not sent any weather packets the latest 10 day(s).

<< 12 13 14 15 16 17 18 >>
Time Temp. Humidity Pressure Rain* Wind** Luminosity Snow
1788561281 32.78° C 58% 1017.1 hPa 0 mm - 66 W/m² -
1788560972 32.78° C 58% 1017.3 hPa 0 mm - 74 W/m² -
1788560667 32.78° C 58% 1017.3 hPa 0 mm - 62 W/m² -
1788560367 32.78° C 59% 1017.4 hPa 0 mm - 58 W/m² -
1788560061 32.78° C 59% 1017.1 hPa 0 mm - 54 W/m² -
1788559757 32.78° C 58% 1017.2 hPa 0 mm - 51 W/m² -
1788559456 32.78° C 58% 1017.1 hPa 0 mm - 47 W/m² -
1788559152 33.33° C 57% 1017.2 hPa 0 mm - 48 W/m² -
1788558846 33.33° C 57% 1017 hPa 0 mm - 56 W/m² -
1788558542 33.33° C 56% 1017.1 hPa 0 mm - 74 W/m² -
1788558238 33.89° C 56% 1017 hPa 0 mm - 85 W/m² -
1788557936 33.89° C 55% 1017.1 hPa 0 mm - 90 W/m² -
1788557631 33.89° C 55% 1016.9 hPa 0 mm - 95 W/m² -
1788557328 33.89° C 55% 1016.5 hPa 0 mm - 93 W/m² -
1788557027 34.44° C 53% 1016.6 hPa 0 mm - 86 W/m² -
1788556722 34.44° C 53% 1016.9 hPa 0 mm - 115 W/m² -
1788556412 35° C 52% 1017 hPa 0 mm - 223 W/m² -
1788556112 35° C 51% 1016.7 hPa 0 mm - 215 W/m² -
1788555806 35° C 51% 1016.5 hPa 0 mm - 242 W/m² -
1788555503 35° C 50% 1016.6 hPa 0 mm - 201 W/m² -
1788555198 35° C 50% 1016.4 hPa 0 mm - 187 W/m² -
1788554895 35° C 50% 1016.5 hPa 0 mm - 295 W/m² -
1788554590 35° C 49% 1016.5 hPa 0 mm - 325 W/m² -
1788554287 35.56° C 49% 1016.2 hPa 0 mm - 290 W/m² -
1788553983 35° C 49% 1016.2 hPa 0 mm - 226 W/m² -

* Rain latest hour (hover to see other rain measurements)
** Current wind speed in m/s (hover to see current wind gust speed)